STARLINK-11335 [DTC]

Last updated on Thu Nov 21 2024 00:02:05 GMT+0000 (Coordinated Universal Time)

1 61687U 24195A 24325.53726027 .00000262 00000+0 55935-5 0 9998 2 61687 53.1573 205.0694 0000615 34.8323 325.2738 15.76723639 4547
UTC large
Height (km)
Speed (km/s)
/
Latitude / Longitude
Inclination (degrees)
Orbital Period (minutes)
Azimuth
Elevation
Range (km)
Doppler Factor

Next 0 passes for location: London (51.5072 / 0.1276)

Sorry there are no passes over London.